Wind_Speed
7 9 10 11 13 14 16 17 18 20 21 22 23 25 26 27 28 29 30 31 32 33 33 34 35 36 36 37 37 38 38 38 37 38 38 39 39 38 38 38 37 35 32
10 12 13 15 16 17 18 19 20 21 22 24 25 26 27 29 30 31 32 33 34 35 36 37 38 39 40 41 41 42 42 42 42 42 42 42 42 42 42 42 41 40 38
13 14 16 17 18 19 19 20 21 23 24 25 26 28 29 31 32 34 35 36 37 39 40 41 42 43 44 45 46 46 47 47 47 47 47 47 46 46 45 45 45 44 43
15 16 17 18 18 19 20 21 23 24 25 27 28 30 31 33 34 36 37 39 41 42 44 45 46 48 49 50 51 51 52 52 52 52 52 52 52 51 50 49 49 48 47
16 16 17 18 19 20 21 22 24 25 27 28 30 32 33 35 37 39 41 42 44 46 48 49 51 52 54 55 55 56 57 57 57 58 58 58 57 57 56 54 53 52 51
16 17 18 19 20 21 23 24 26 27 29 30 32 34 36 38 40 42 44 46 48 50 52 54 56 58 60 61 61 62 63 63 62 63 63 63 63 63 62 60 58 57 56
16 18 19 20 21 23 25 26 28 29 31 33 35 37 39 41 43 45 48 50 53 55 58 60 63 65 67 68 70 71 71 70 70 69 69 69 69 69 68 67 65 62 61
18 19 20 22 24 25 26 28 29 31 33 36 38 40 42 44 46 49 52 55 58 60 63 66 69 72 74 76 78 79 79 79 79 78 77 76 75 75 74 73 71 68 66
20 21 22 24 25 27 28 30 32 34 36 38 40 43 45 47 50 53 56 59 63 66 69 72 76 79 82 85 86 88 88 89 88 87 85 83 82 81 81 80 78 75 72
21 23 24 25 27 28 30 32 34 37 39 41 43 45 48 50 53 56 60 63 66 70 73 78 82 85 89 92 95 96 97 97 97 96 94 93 91 89 87 86 84 82 79
23 24 25 27 29 31 33 35 37 40 42 44 46 48 51 53 56 59 62 66 69 73 77 82 86 90 94 97 100 102 103 104 104 103 102 101 99 98 96 94 91 89 86
24 25 27 29 31 33 35 37 40 42 44 46 48 51 53 56 59 61 65 68 72 76 80 85 89 94 97 100 102 104 104 104 103 102 101 101 101 101 101 101 99 96 93
25 27 29 31 33 35 37 40 42 44 46 48 50 53 55 57 60 63 66 70 74 78 83 87 92 95 97 98 98 96 93 91 89 88 89 91 95 99 101 103 104 102 100
27 29 31 33 35 37 39 42 44 46 48 50 52 54 56 59 62 65 68 72 76 81 85 89 92 93 93 92 88 84 80 77 76 75 76 78 82 88 94 99 103 105 104
28 30 32 34 36 38 41 43 45 47 49 51 53 55 57 59 62 65 69 74 78 82 86 88 89 89 87 83 79 75 72 71 70 70 69 70 72 76 82 90 97 103 106
29 31 33 35 37 39 41 43 45 47 49 51 53 55 57 60 63 66 71 75 79 83 85 86 86 84 81 76 72 70 69 69 68 68 68 68 69 71 75 81 89 96 103
29 31 33 34 36 39 41 43 45 47 49 51 53 55 58 60 64 67 71 76 80 82 84 84 82 79 75 71 69 68 68 67 67 67 68 68 69 70 73 77 83 90 97
29 31 33 34 36 39 41 43 45 47 49 51 53 56 58 61 64 68 72 76 80 81 82 80 78 74 71 69 68 67 67 66 66 66 67 68 70 72 74 76 80 86 93
29 31 33 35 37 39 41 44 46 48 50 52 54 56 59 62 65 69 73 77 79 80 80 78 74 71 69 68 66 65 64 63 63 64 65 67 69 71 74 77 80 84 90
29 32 34 36 38 40 43 45 47 49 51 53 55 57 60 63 67 70 74 77 78 78 77 75 71 69 68 67 65 63 61 60 61 61 61 62 65 69 73 77 80 84 88
30 33 35 37 39 42 44 47 49 51 53 55 57 59 61 64 68 71 74 77 77 76 74 72 69 68 67 66 65 61 57 57 57 56 56 57 58 62 67 74 80 84 87
31 33 36 38 41 43 46 48 51 53 55 57 58 60 63 66 69 72 75 76 76 74 72 70 68 67 65 65 64 62 58 53 50 50 51 52 53 55 59 67 76 82 86
32 35 37 40 42 45 47 50 52 55 57 59 61 62 64 67 70 72 75 75 74 72 70 68 67 67 64 62 62 62 61 58 52 46 46 46 46 47 50 58 68 78 85
33 36 39 42 44 47 49 52 54 57 59 61 62 64 66 68 71 73 75 74 73 71 69 67 66 66 64 60 58 58 58 58 57 50 43 41 41 40 42 48 59 71 81
35 37 40 43 46 49 51 54 56 59 61 63 64 65 67 69 71 73 74 73 71 69 67 66 65 64 63 60 58 56 54 53 53 52 46 39 35 34 35 39 48 61 74
36 39 42 45 48 51 53 55 58 60 62 64 66 66 68 70 71 73 73 72 70 68 66 64 64 63 61 59 57 55 54 52 49 47 45 39 33 29 28 30 37 49 64
Wind_Direction
352 340 332 326 320 316 313 311 309 308 306 305 305 304 304 303 303 302 301 300 299 298 296 295 293 290 288 286 283 281 278 275 272 270 268 265 262 259 256 254 252 249 246
330 325 320 316 314 311 310 308 307 306 305 305 304 304 303 303 302 301 300 299 298 297 296 294 293 291 289 287 284 282 279 276 273 270 268 265 262 259 256 254 251 249 247
320 316 313 312 311 310 309 308 307 306 305 305 304 304 303 303 302 301 300 299 298 297 295 294 292 291 289 287 285 282 280 277 274 271 268 266 263 260 256 253 251 249 247
314 312 312 312 311 310 309 308 307 306 306 305 305 304 304 303 302 301 300 299 298 297 295 294 292 290 288 286 284 282 279 277 274 271 268 265 263 260 257 253 250 248 246
313 313 313 312 312 310 309 308 307 307 306 306 305 304 304 303 302 301 300 299 298 297 295 293 291 290 288 286 283 281 279 277 274 271 268 266 263 260 257 253 250 248 246
315 315 314 313 312 311 310 309 309 308 307 306 306 305 305 304 303 302 301 300 299 298 297 295 293 291 289 286 284 281 278 275 273 270 268 265 262 260 257 254 250 248 245
317 316 315 313 312 311 311 311 310 309 308 307 307 307 306 305 304 303 302 302 301 300 299 297 296 294 291 289 286 283 279 275 272 269 266 264 261 259 256 254 250 247 245
317 316 315 314 313 313 312 312 311 310 309 309 308 307 307 306 305 305 305 304 303 302 301 299 298 296 293 291 288 285 281 278 274 270 266 263 260 257 255 253 250 246 244
316 315 314 314 314 313 313 312 312 311 311 310 309 308 308 307 307 307 307 306 305 304 302 301 299 297 295 293 290 287 283 279 275 271 266 262 259 256 253 251 249 246 243
316 315 315 315 315 314 314 314 314 313 312 312 311 310 310 310 309 309 308 307 306 305 303 302 300 299 297 294 291 288 285 281 277 272 267 263 259 255 251 249 247 245 242
317 317 316 316 316 315 315 316 315 314 314 313 313 312 312 311 310 309 309 308 307 305 304 303 301 300 298 295 293 289 286 282 278 274 269 264 259 255 250 247 245 243 241
319 319 318 318 317 317 317 317 316 315 315 314 314 313 312 311 311 310 309 308 307 306 305 304 302 301 299 296 293 290 287 284 280 275 270 265 260 255 250 246 243 241 239
321 321 321 320 319 319 319 318 317 316 315 315 314 313 312 312 311 311 310 309 309 308 306 305 304 302 300 297 294 292 288 285 280 275 270 265 260 255 250 245 241 238 236
324 324 324 323 322 321 320 319 318 317 316 315 314 313 313 313 312 312 311 310 310 309 308 307 305 303 301 299 296 293 289 285 280 275 270 265 260 254 249 245 241 237 234
327 327 326 325 324 323 322 321 319 318 317 316 315 314 313 313 313 312 312 312 312 311 311 309 307 305 303 301 298 294 290 286 281 276 271 265 260 254 249 244 240 236 232
329 329 328 326 325 325 324 323 321 320 318 317 316 315 315 314 314 314 314 314 314 314 313 311 309 308 306 303 299 295 292 287 282 277 272 266 260 255 249 244 239 235 231
331 330 330 329 329 328 327 326 324 322 320 319 317 316 316 316 316 316 316 317 317 316 315 314 312 310 308 305 301 298 294 290 285 279 274 267 261 255 250 244 239 234 230
333 333 333 332 332 331 330 329 327 325 323 321 319 318 318 318 318 319 319 320 320 319 318 316 315 313 310 307 304 301 297 293 288 282 276 269 263 256 250 245 240 235 230
335 335 335 334 334 334 333 332 331 329 327 324 322 321 321 320 321 321 322 322 322 322 321 319 318 316 313 310 308 305 301 297 292 287 280 273 265 258 251 245 240 235 230
337 337 337 336 336 335 335 335 334 332 330 328 326 324 324 323 324 324 325 325 325 324 323 322 320 319 316 314 312 309 305 302 298 293 286 278 269 260 252 245 239 234 230
338 338 338 338 337 337 337 337 336 335 333 331 329 327 327 326 327 327 328 328 327 326 325 324 323 321 320 317 315 312 309 306 303 298 292 285 275 264 254 245 238 233 229
340 340 339 339 338 338 338 338 338 337 336 334 332 330 330 329 329 330 331 330 330 328 327 326 325 325 323 321 319 317 314 311 307 303 298 292 282 270 257 245 237 232 228
342 342 342 341 341 340 340 339 339 339 338 337 335 333 332 332 332 332 333 332 331 330 329 328 327 327 327 325 323 322 321 319 316 311 304 298 289 276 261 248 237 231 227
341 342 343 343 343 342 342 341 340 340 339 338 337 335 334 334 334 334 335 334 333 332 331 331 330 330 329 328 327 326 325 324 322 320 315 306 297 284 267 252 239 231 226
341 342 342 343 343 343 343 343 342 341 340 339 338 337 336 336 336 336 336 336 335 334 333 333 332 332 332 331 330 330 330 328 326 324 323 316 306 293 275 258 243 232 226
340 341 341 342 343 343 343 343 342 341 341 340 339 338 338 337 337 337 337 337 336 335 335 334 335 334 334 332 332 333 333 333 331 328 327 324 317 305 287 266 248 235 226
Height
5882 5881 5880 5879 5878 5877 5875 5874 5873 5871 5869 5868 5866 5865 5863 5862 5861 5859 5858 5857 5856 5854 5853 5853 5852 5851 5851 5850 5850 5850 5850 5850 5850 5849 5849 5850 5851 5852 5853 5855 5856 5857 5859
5881 5880 5878 5877 5876 5874 5873 5871 5869 5868 5866 5864 5862 5861 5859 5857 5855 5854 5852 5851 5850 5848 5847 5846 5845 5844 5843 5843 5842 5842 5842 5842 5842 5842 5842 5842 5843 5844 5845 5847 5848 5850 5852
5879 5878 5876 5875 5873 5871 5869 5868 5866 5864 5862 5860 5858 5856 5854 5852 5850 5848 5846 5844 5843 5841 5840 5838 5837 5836 5835 5834 5834 5833 5833 5833 5833 5833 5833 5834 5834 5835 5836 5838 5840 5842 5844
5877 5875 5873 5872 5870 5868 5866 5864 5862 5860 5858 5855 5853 5851 5849 5846 5844 5842 5839 5837 5835 5833 5831 5830 5828 5827 5826 5825 5824 5823 5823 5823 5823 5823 5823 5824 5824 5824 5826 5828 5830 5832 5835
5874 5872 5871 5869 5867 5864 5862 5860 5858 5855 5853 5850 5848 5845 5843 5840 5837 5834 5831 5829 5826 5824 5821 5819 5817 5816 5814 5813 5812 5811 5811 5811 5811 5811 5811 5811 5812 5812 5814 5817 5819 5822 5824
5871 5869 5867 5865 5863 5861 5858 5856 5853 5851 5848 5845 5842 5839 5836 5833 5829 5826 5823 5819 5816 5813 5810 5807 5804 5802 5800 5799 5797 5796 5796 5796 5797 5797 5797 5797 5798 5799 5800 5803 5807 5810 5813
5868 5866 5864 5862 5859 5857 5854 5851 5848 5845 5842 5839 5836 5832 5828 5824 5821 5817 5813 5809 5805 5801 5797 5793 5789 5786 5783 5781 5779 5778 5778 5778 5780 5780 5780 5781 5782 5782 5784 5788 5792 5796 5800
5865 5863 5860 5858 5855 5852 5849 5846 5843 5840 5836 5832 5828 5824 5820 5816 5811 5807 5802 5797 5792 5787 5782 5777 5772 5768 5764 5761 5757 5755 5755 5755 5757 5758 5760 5761 5762 5764 5766 5770 5775 5780 5785
5862 5859 5857 5854 5851 5848 5845 5841 5837 5834 5829 5825 5821 5816 5811 5806 5801 5796 5790 5784 5778 5772 5766 5760 5754 5748 5742 5737 5733 5730 5728 5727 5728 5730 5733 5736 5738 5742 5745 5749 5755 5762 5768
5859 5856 5853 5850 5846 5843 5839 5835 5831 5827 5822 5817 5812 5807 5802 5796 5790 5784 5778 5771 5765 5758 5750 5743 5735 5727 5719 5712 5705 5700 5697 5695 5696 5698 5701 5704 5709 5715 5720 5726 5732 5740 5748
5855 5852 5849 5845 5841 5838 5833 5829 5824 5819 5814 5809 5803 5797 5791 5785 5779 5772 5766 5759 5751 5743 5735 5726 5716 5707 5697 5686 5677 5669 5663 5660 5659 5661 5664 5668 5674 5681 5690 5698 5707 5715 5725
5851 5848 5844 5840 5836 5832 5827 5822 5817 5812 5806 5800 5794 5788 5782 5775 5768 5761 5754 5746 5738 5729 5719 5708 5697 5685 5673 5660 5648 5638 5630 5624 5621 5622 5625 5629 5635 5644 5655 5665 5677 5688 5698
5847 5843 5839 5835 5830 5825 5820 5815 5809 5804 5798 5791 5785 5778 5772 5765 5757 5750 5742 5733 5724 5714 5702 5690 5676 5662 5647 5633 5620 5608 5599 5592 5588 5587 5589 5592 5598 5606 5617 5629 5642 5656 5669
5842 5838 5833 5829 5824 5819 5813 5808 5802 5795 5789 5783 5776 5769 5762 5754 5746 5738 5729 5720 5709 5697 5684 5669 5654 5638 5622 5607 5593 5582 5573 5566 5562 5560 5560 5561 5564 5571 5580 5592 5605 5620 5636
5837 5833 5828 5823 5818 5812 5806 5800 5794 5787 5781 5774 5767 5759 5752 5744 5735 5726 5716 5705 5693 5679 5664 5647 5630 5614 5598 5583 5570 5560 5552 5544 5539 5535 5535 5535 5537 5541 5547 5557 5569 5584 5601
5832 5827 5822 5817 5812 5806 5800 5793 5786 5779 5772 5765 5757 5750 5741 5733 5724 5714 5702 5690 5675 5660 5643 5625 5608 5591 5576 5562 5551 5540 5531 5523 5517 5513 5510 5511 5512 5515 5520 5527 5537 5550 5566
5827 5822 5817 5812 5806 5800 5793 5786 5779 5772 5764 5756 5748 5739 5731 5721 5711 5700 5687 5673 5658 5641 5623 5604 5586 5570 5555 5543 5531 5520 5510 5501 5494 5489 5486 5485 5487 5490 5494 5500 5508 5519 5534
5823 5818 5812 5806 5800 5793 5786 5779 5771 5764 5755 5747 5738 5729 5719 5709 5698 5686 5672 5657 5640 5622 5603 5585 5567 5552 5537 5524 5513 5502 5490 5480 5471 5465 5460 5459 5460 5463 5467 5473 5481 5491 5504
5818 5813 5807 5800 5794 5787 5779 5772 5764 5755 5746 5737 5728 5718 5707 5696 5684 5671 5656 5640 5622 5603 5584 5566 5549 5534 5520 5506 5494 5483 5470 5459 5449 5441 5435 5432 5431 5434 5438 5446 5453 5463 5475
5813 5807 5801 5794 5787 5780 5772 5764 5755 5746 5737 5727 5717 5706 5695 5683 5670 5656 5640 5622 5604 5585 5566 5549 5533 5517 5502 5488 5475 5464 5452 5440 5428 5418 5411 5406 5403 5404 5408 5416 5425 5435 5447
5808 5802 5795 5788 5781 5773 5765 5756 5747 5737 5727 5717 5706 5694 5682 5670 5656 5641 5624 5606 5587 5569 5550 5533 5517 5503 5487 5471 5458 5447 5437 5424 5411 5399 5389 5382 5378 5376 5379 5386 5395 5407 5420
5803 5796 5789 5782 5774 5766 5757 5748 5738 5728 5717 5706 5694 5682 5670 5656 5642 5626 5609 5591 5572 5553 5536 5518 5502 5488 5473 5455 5439 5426 5417 5410 5398 5384 5372 5362 5355 5352 5353 5357 5367 5380 5393
5797 5791 5784 5776 5767 5759 5749 5740 5730 5719 5708 5696 5683 5670 5657 5643 5627 5611 5594 5576 5557 5539 5522 5505 5489 5474 5460 5444 5425 5409 5395 5385 5377 5370 5357 5346 5336 5331 5330 5333 5342 5354 5368
5792 5785 5777 5769 5760 5751 5741 5731 5721 5710 5698 5685 5672 5659 5645 5630 5614 5598 5580 5562 5544 5526 5509 5493 5477 5461 5446 5432 5418 5401 5384 5369 5356 5348 5343 5332 5322 5316 5313 5314 5320 5331 5345
5786 5778 5770 5762 5753 5743 5734 5723 5712 5700 5688 5675 5662 5648 5633 5618 5602 5585 5567 5549 5532 5515 5498 5482 5466 5450 5434 5420 5406 5393 5379 5363 5348 5334 5327 5321 5313 5305 5300 5300 5304 5312 5324
5779 5771 5763 5755 5745 5736 5726 5715 5703 5692 5679 5666 5652 5637 5622 5606 5590 5573 5556 5538 5521 5504 5488 5472 5457 5441 5425 5411 5396 5382 5369 5356 5343 5329 5318 5310 5303 5297 5292 5290 5291 5297 5306